Location: Alcabón
(40.0022°N, 4.3685°W)
Time: 17:16:51
(UTC+00:00)

USA 276 - Pass Details

Date: 08 August 2025
Orbit: 366 x 369 km, 50.0° (Epoch: 12 July)

Event Time Altitude Azimuth Distance (km) Brightness Sun altitude
Rises 21:08:22 0° 308° (NW) 2,192 7.6 -18.1°
Reaches altitude 10° 21:10:29 10° 317° (NW) 1,355 6.1 -18.4°
Maximum altitude 21:13:22 38° 27° (NNE) 579 3.0 -18.8°
Enters shadow 21:13:36 37° 40° (NE) 586 2.9 -18.9°
